EW7149 Weather Reports


Display with metric or nautical units.
time (UTC)temp
F
wind
direction
speed
MPH
gust
MPH
rain 1hr
in
rain 24hr
in
rain mn
in
humidity
%
barometer
mb
20260506043904 70 142 0.0 10.0 0.00 0.00 0.00 52 1009.0
20260506043351 70 134 1.0 10.0 0.00 0.00 0.00 52 1009.0
20260506042839 70 166 2.0 10.0 0.00 0.00 0.00 52 1009.1
20260506042320 70 160 1.0 10.0 0.00 0.00 0.00 52 1009.0
20260506041826 70 145 0.0 7.0 0.00 0.00 0.00 51 1009.1
20260506041325 70 147 0.0 3.0 0.00 0.00 0.00 51 1009.0
20260506040319 70 162 0.0 9.0 0.00 0.00 0.00 50 1009.0
20260506035309 70 157 0.0 9.0 0.00 0.00 0.00 50 1009.1
20260506034305 70 153 1.0 11.0 0.00 0.00 0.00 49 1009.0
20260506033810 70 142 1.0 9.0 0.00 0.00 0.00 48 1008.9
20260506033254 70 157 1.0 12.0 0.00 0.00 0.00 48 1008.9
20260506032246 71 169 1.0 8.0 0.00 0.00 0.00 47 1009.1
20260506031731 71 148 0.0 8.0 0.00 0.00 0.00 46 1009.1
20260506031237 71 150 0.0 8.0 0.00 0.00 0.00 46 1009.0
20260506030745 71 161 0.0 8.0 0.00 0.00 0.00 45 1009.0
20260506030246 71 140 0.0 0.0 0.00 0.00 0.00 45 1009.0
20260506025732 71 197 1.0 7.0 0.00 0.00 0.00 44 1009.1
20260506025232 71 173 1.0 7.0 0.00 0.00 0.00 44 1009.0
20260506024723 71 149 0.0 10.0 0.00 0.00 0.00 43 1009.0
20260506024231 72 162 0.0 10.0 0.00 0.00 0.00 43 1009.0
20260506023719 72 151 1.0 10.0 0.00 0.00 0.00 43 1009.0
20260506023228 72 180 1.0 10.0 0.00 0.00 0.00 42 1009.1
20260506022734 72 151 0.0 0.0 0.00 0.00 0.00 42 1009.0
20260506022240 72 142 1.0 10.0 0.00 0.00 0.00 42 1009.1
20260506021732 72 148 1.0 8.0 0.00 0.00 0.00 41 1009.2
20260506021241 72 147 1.0 8.0 0.00 0.00 0.00 41 1009.2
20260506020746 72 149 1.0 7.0 0.00 0.00 0.00 41 1009.1
20260506020229 72 132 0.0 7.0 0.00 0.00 0.00 40 1009.0
20260506015720 72 165 1.0 6.0 0.00 0.00 0.00 40 1009.0
20260506015220 72 134 2.0 10.0 0.00 0.00 0.00 40 1009.0
20260506014729 72 166 2.0 9.0 0.00 0.00 0.00 39 1008.9
20260506013224 73 155 2.0 7.0 0.00 0.00 0.00 38 1008.9
20260506012718 73 149 2.0 7.0 0.00 0.00 0.00 38 1008.9
20260506011657 73 136 3.0 8.0 0.00 0.00 0.00 37 1008.8
20260506010656 73 144 0.0 8.0 0.00 0.00 0.00 37 1008.7
20260506010153 73 159 0.0 7.0 0.00 0.00 0.00 37 1008.6
20260506005645 74 150 0.0 0.0 0.00 0.00 0.00 37 1008.6
20260506005155 74 147 1.0 5.0 0.00 0.00 0.00 36 1008.5
20260506004645 74 150 1.0 9.0 0.00 0.00 0.00 36 1008.4
20260506004152 74 171 1.0 9.0 0.00 0.00 0.00 36 1008.3
20260506003635 74 158 1.0 8.0 0.00 0.00 0.00 35 1008.3
20260506003144 75 176 2.0 8.0 0.00 0.00 0.00 35 1008.1
20260506002109 75 158 2.0 8.0 0.00 0.00 0.00 34 1008.1
20260506000531 76 153 3.0 10.0 0.00 0.00 0.00 33 1008.0
20260506000028 76 153 3.0 10.0 0.00 0.00 0.00 32 1008.0
20260505235005 77 169 3.0 14.0 0.00 0.00 0.00 31 1008.0
20260505234452 77 136 3.0 14.0 0.00 0.00 0.00 31 1008.0
20260505233954 77 157 3.0 14.0 0.00 0.00 0.00 31 1007.9
20260505233450 77 172 3.0 10.0 0.00 0.00 0.00 32 1007.9
20260505232953 77 119 4.0 12.0 0.00 0.00 0.00 32 1007.8
20260505232438 78 171 4.0 12.0 0.00 0.00 0.00 32 1007.8
20260505231413 78 177 3.0 11.0 0.00 0.00 0.00 33 1007.8
20260505230910 78 159 4.0 12.0 0.00 0.00 0.00 33 1007.7
20260505225849 78 180 3.0 12.0 0.00 0.00 0.00 34 1007.7
20260505225335 78 165 4.0 12.0 0.00 0.00 0.00 33 1007.6
20260505224839 78 165 3.0 11.0 0.00 0.00 0.00 33 1007.7
20260505224332 78 130 3.0 10.0 0.00 0.00 0.00 34 1007.7
20260505223834 78 133 3.0 11.0 0.00 0.00 0.00 33 1007.9
20260505223316 79 182 3.0 11.0 0.00 0.00 0.00 33 1007.9
20260505222825 79 170 3.0 13.0 0.00 0.00 0.00 34 1007.8
20260505222325 79 141 3.0 13.0 0.00 0.00 0.00 34 1007.9
20260505221831 79 157 4.0 14.0 0.00 0.00 0.00 34 1008.1
20260505221323 79 171 5.0 14.0 0.00 0.00 0.00 33 1008.0
20260505220819 79 180 5.0 15.0 0.00 0.00 0.00 33 1008.0
20260505220329 79 117 4.0 15.0 0.00 0.00 0.00 32 1007.9
20260505215837 79 184 3.0 18.0 0.00 0.00 0.00 32 1007.9
20260505215338 80 132 4.0 18.0 0.00 0.00 0.00 32 1007.9
20260505214835 80 161 5.0 18.0 0.00 0.00 0.00 31 1007.8
20260505214318 80 140 5.0 18.0 0.00 0.00 0.00 30 1007.7
20260505213813 81 148 5.0 16.0 0.00 0.00 0.00 30 1007.8
20260505213300 81 105 5.0 22.0 0.00 0.00 0.00 29 1007.8
20260505212750 82 138 5.0 22.0 0.00 0.00 0.00 30 1007.8
20260505212255 82 132 4.0 18.0 0.00 0.00 0.00 29 1007.7
20260505211758 82 161 4.0 18.0 0.00 0.00 0.00 29 1007.7
20260505211256 83 47 4.0 14.0 0.00 0.00 0.00 29 1007.6
20260505210740 82 230 2.0 14.0 0.00 0.00 0.00 29 1007.5
20260505205231 82 190 4.0 16.0 0.00 0.00 0.00 29 1007.5
20260505204221 82 147 3.0 20.0 0.00 0.00 0.00 29 1007.5
20260505203717 82 285 4.0 20.0 0.00 0.00 0.00 31 1007.6
20260505203227 82 155 5.0 20.0 0.00 0.00 0.00 30 1007.6
20260505202714 82 175 5.0 23.0 0.00 0.00 0.00 30 1007.7
20260505202221 82 146 6.0 23.0 0.00 0.00 0.00 30 1007.7
20260505195705 82 134 1.0 16.0 0.00 0.00 0.00 30 1007.9
20260505195201 82 255 2.0 16.0 0.00 0.00 0.00 30 1008.1
20260505194710 82 95 2.0 16.0 0.00 0.00 0.00 31 1008.0
20260505193701 82 132 0.0 14.0 0.00 0.00 0.00 31 1008.0
20260505193158 82 157 0.0 9.0 0.00 0.00 0.00 33 1008.0
20260505192646 82 134 0.0 0.0 0.00 0.00 0.00 31 1008.1
20260505192149 82 155 1.0 16.0 0.00 0.00 0.00 31 1008.2
20260505191633 82 97 1.0 16.0 0.00 0.00 0.00 31 1008.2
20260505191129 82 165 1.0 18.0 0.00 0.00 0.00 31 1008.5
20260505190626 82 249 2.0 18.0 0.00 0.00 0.00 32 1008.5
20260505190128 82 175 2.0 18.0 0.00 0.00 0.00 32 1008.5
20260505185637 82 141 1.0 18.0 0.00 0.00 0.00 33 1008.6
20260505185141 82 152 1.0 14.0 0.00 0.00 0.00 33 1008.6
20260505184625 82 148 1.0 14.0 0.00 0.00 0.00 33 1008.7
20260505184120 82 155 0.0 9.0 0.00 0.00 0.00 34 1008.8
20260505183627 82 271 0.0 16.0 0.00 0.00 0.00 32 1008.9
20260505183129 82 240 0.0 16.0 0.00 0.00 0.00 33 1008.8
20260505182130 82 165 2.0 16.0 0.00 0.00 0.00 32 1008.9
20260505181622 82 137 0.0 7.0 0.00 0.00 0.00 33 1009.2
20260505181125 82 172 1.0 5.0 0.00 0.00 0.00 34 1009.2
20260505180609 82 137 0.0 18.0 0.00 0.00 0.00 32 1009.3
20260505180111 82 166 0.0 9.0 0.00 0.00 0.00 34 1009.3
20260505175557 81 177 0.0 9.0 0.00 0.00 0.00 35 1009.4
20260505175040 82 157 0.0 7.0 0.00 0.00 0.00 32 1009.3
20260505174532 82 286 0.0 0.0 0.00 0.00 0.00 36 1009.4
20260505173527 81 254 0.0 8.0 0.00 0.00 0.00 35 1009.5
20260505173029 81 118 0.0 7.0 0.00 0.00 0.00 33 1009.7
20260505172512 81 260 0.0 7.0 0.00 0.00 0.00 34 1009.7
20260505172013 81 200 0.0 0.0 0.00 0.00 0.00 37 1009.6
20260505171523 80 157 0.0 18.0 0.00 0.00 0.00 35 1009.7
20260505171025 81 159 0.0 8.0 0.00 0.00 0.00 35 1009.7
20260505170531 81 173 0.0 7.0 0.00 0.00 0.00 36 1009.9
20260505170026 80 163 0.0 1.0 0.00 0.00 0.00 39 1010.0
20260505165523 80 164 0.0 10.0 0.00 0.00 0.00 38 1009.9
20260505164538 80 237 0.0 2.0 0.00 0.00 0.00 37 1010.2
20260505164021 80 253 0.0 10.0 0.00 0.00 0.00 38 1010.3
20260505163515 80 265 0.0 0.0 0.00 0.00 0.00 38 1010.2
20260505162958 80 130 0.0 9.0 0.00 0.00 0.00 39 1010.3
20260505162453 79 221 0.0 5.0 0.00 0.00 0.00 38 1010.3
20260505161451 79 262 0.0 13.0 0.00 0.00 0.00 38 1010.5
20260505160939 79 154 0.0 13.0 0.00 0.00 0.00 38 1010.4
20260505160441 80 142 0.0 13.0 0.00 0.00 0.00 39 1010.5
20260505152912 79 150 0.0 1.0 0.00 0.00 0.00 42 1010.6
20260505151845 78 166 0.0 12.0 0.00 0.00 0.00 39 1010.4
20260505151340 78 150 0.0 12.0 0.00 0.00 0.00 41 1010.5
20260505150340 78 150 0.0 7.0 0.00 0.00 0.00 42 1010.5
20260505140209 74 348 0.0 2.0 0.00 0.00 0.00 49 1010.6
20260505130125 65 234 0.0 0.0 0.00 0.00 0.00 57 1011.4
20260505124626 63 205 0.0 0.0 0.00 0.00 0.00 56 1011.5
20260505124114 63 168 0.0 0.0 0.00 0.00 0.00 56 1011.4
20260505123615 63 138 0.0 0.0 0.00 0.00 0.00 56 1011.5
20260505122602 62 228 0.0 0.0 0.00 0.00 0.00 55 1011.4
20260505122051 61 163 0.0 3.0 0.00 0.00 0.00 54 1011.5
20260505121549 61 132 0.0 0.0 0.00 0.00 0.00 54 1011.4
20260505121045 60 248 0.0 0.0 0.00 0.00 0.00 53 1011.4
20260505120547 60 316 0.0 0.0 0.00 0.00 0.00 53 1011.3
20260505120029 60 139 0.0 0.0 0.00 0.00 0.00 52 1011.2
20260505113949 59 161 0.0 0.0 0.00 0.00 0.00 51 1011.1
20260505113441 59 182 0.0 0.0 0.00 0.00 0.00 50 1011.1
20260505112933 59 157 0.0 0.0 0.00 0.00 0.00 50 1011.1
20260505112413 59 159 0.0 7.0 0.00 0.00 0.00 50 1011.0
20260505111902 59 165 0.0 3.0 0.00 0.00 0.00 49 1011.1
20260505110852 59 163 0.0 6.0 0.00 0.00 0.00 49 1010.9
20260505110343 59 150 0.0 3.0 0.00 0.00 0.00 49 1010.8
20260505102150 58 147 0.0 0.0 0.00 0.00 0.00 47 1010.3
20260505101658 58 150 0.0 0.0 0.00 0.00 0.00 47 1010.2
20260505100529 58 155 0.0 0.0 0.00 0.00 0.00 47 1010.2
20260505100014 58 182 0.0 0.0 0.00 0.00 0.00 47 1010.2
20260505095511 58 174 0.0 1.0 0.00 0.00 0.00 47 1010.1
20260505095016 58 163 0.0 5.0 0.00 0.00 0.00 47 1010.1
20260505094506 58 157 0.0 3.0 0.00 0.00 0.00 47 1010.0
20260505093952 58 150 0.0 0.0 0.00 0.00 0.00 47 1010.0
20260505093451 58 147 0.0 3.0 0.00 0.00 0.00 47 1010.0
20260505092950 59 163 0.0 0.0 0.00 0.00 0.00 48 1010.1
20260505092439 59 157 0.0 5.0 0.00 0.00 0.00 48 1010.1
20260505091942 59 160 0.0 7.0 0.00 0.00 0.00 49 1010.0
20260505091430 59 162 0.0 7.0 0.00 0.00 0.00 49 1010.0
20260505090920 59 153 0.0 8.0 0.00 0.00 0.00 49 1010.0
20260505090402 59 156 0.0 1.0 0.00 0.00 0.00 50 1009.9
20260505085230 59 159 0.0 2.0 0.00 0.00 0.00 50 1009.9
20260505084713 59 165 0.0 4.0 0.00 0.00 0.00 50 1009.9
20260505083600 60 166 0.0 7.0 0.00 0.00 0.00 51 1010.0
20260505082428 60 140 0.0 0.0 0.00 0.00 0.00 52 1010.0
20260505081936 60 163 0.0 4.0 0.00 0.00 0.00 52 1010.0
20260505081425 60 157 0.0 3.0 0.00 0.00 0.00 53 1010.0
20260505080911 60 161 0.0 1.0 0.00 0.00 0.00 53 1009.9
20260505080421 61 150 0.0 0.0 0.00 0.00 0.00 54 1009.8
20260505075908 61 169 0.0 0.0 0.00 0.00 0.00 54 1009.8
20260505075354 61 167 0.0 3.0 0.00 0.00 0.00 55 1009.7
20260505074842 61 126 0.0 3.0 0.00 0.00 0.00 55 1009.7
20260505074329 61 139 0.0 3.0 0.00 0.00 0.00 55 1009.7
20260505073820 61 155 0.0 1.0 0.00 0.00 0.00 55 1009.6
20260505073321 61 157 0.0 0.0 0.00 0.00 0.00 55 1009.6
20260505072807 61 148 0.0 4.0 0.00 0.00 0.00 54 1009.6
20260505072259 61 156 0.0 0.0 0.00 0.00 0.00 54 1009.7
20260505071801 61 153 0.0 0.0 0.00 0.00 0.00 54 1009.6
20260505071242 61 151 0.0 1.0 0.00 0.00 0.00 55 1009.6
20260505070746 61 153 0.0 0.0 0.00 0.00 0.00 54 1009.6
20260505070233 61 154 0.0 1.0 0.00 0.00 0.00 55 1009.6
20260505065715 61 157 0.0 0.0 0.00 0.00 0.00 54 1009.7
20260505065155 61 164 0.0 0.0 0.00 0.00 0.00 54 1009.8
20260505064655 61 173 0.0 2.0 0.00 0.00 0.00 54 1009.7
20260505064136 61 160 0.0 0.0 0.00 0.00 0.00 55 1009.8
20260505063642 61 153 0.0 5.0 0.00 0.00 0.00 55 1009.8
20260505063152 61 151 0.0 5.0 0.00 0.00 0.00 55 1009.8
20260505062641 61 151 0.0 3.0 0.00 0.00 0.00 56 1009.8
20260505062132 61 170 0.0 0.0 0.00 0.00 0.00 56 1009.8
20260505061626 62 170 0.0 0.0 0.00 0.00 0.00 56 1009.9
20260505061106 62 170 0.0 0.0 0.00 0.00 0.00 56 1009.8
20260505060555 62 170 0.0 3.0 0.00 0.00 0.00 56 1009.8
20260505060046 62 171 0.0 0.0 0.00 0.00 0.00 56 1009.8
20260505055553 62 161 0.0 1.0 0.00 0.00 0.00 56 1009.8
20260505055054 62 165 0.0 0.0 0.00 0.00 0.00 56 1009.8
20260505054536 63 153 0.0 3.0 0.00 0.00 0.00 57 1009.8
20260505054041 63 151 0.0 0.0 0.00 0.00 0.00 57 1009.8
20260505052907 63 128 0.0 0.0 0.00 0.00 0.00 57 1009.9
20260505051125 63 166 0.0 4.0 0.00 0.00 0.00 57 1009.9
20260505050623 63 141 0.0 0.0 0.00 0.00 0.00 57 1009.8